map of DVO home
Great Circle Mapper logo
DVO - Airport
Location
City:  Davao City, Philippines
Name:Francisco Bangoy International Airport
ICAO / IATA:RPMD / DVO

Details
Type:Airport (Aerodrome, Airfield)
Use:Public/Civil, International (customs port of entry)
Latitude:7°07'32"N (7.125522)
Longitude:125°38'45"E (125.645778)
Datum:WGS 1984
Elevation:96 ft (29 m)
Runways:1
Longest:9842 × 148 ft (3000 × 45 m), paved

Time
Time Zone:UTC+8
Local Time:

Weather
METAR:RPMD 272200Z 34002KT 6000 FEW016 SCT290 23/22 Q1009 RMK A2980
TAF:RPMD 271700Z 2718/2818 20004KT 9999 FEW016 SCT090 BKN290
TEMPO 2718/2724 29004KT 8000 -RA SCT016 BKN090 OVC290

Related Locations
Nearby:
Farthest:SXX: 12281 mi / 19765 km
São Felix de Xingú, PA, BR

Find:

   beyond  
but within

Other Information
Maps:
NOTAMs:
Links:
Sources:

  
flag of Philippines   

Sectional Chart

Flight Planning
at skyvector.com

Satellite Image

Google Maps Satellite View

 

Copyright © 2004-2014 Karl L. Swartz. All rights reserved.
The Great Circle Mapper name and logo are trademarks of the Great Circle Mapper.
All other trademarks mentioned herein belong to their respective owners.
Please see credits for attibutions and further copyright information.

  Follow gcmap on Facebook Follow gcmap on Twitter

hCard Microformat

Geo Microformat